Location: Mentone
(34.5413°N, 85.5351°W)
Time: 10:32:55
(UTC-05:00)

Tiros 1 despin weight - All Passes

Search period start: 20 August 2017 00:00
Search period end: 30 August 2017 00:00
Orbit: 595 x 644 km, 48.2° (Epoch: 20 August)

Date Brightness Start Highest point End Pass type
(mag) Time Alt. Az. Time Alt. Az. Time Alt. Az.
20 Aug - 00:09:12 10° NW 00:13:20 33° NNE 00:17:31 10° E visible
20 Aug - 01:50:38 10° WNW 01:55:02 47° SW 01:59:30 10° SSE night (unlit)
20 Aug - 17:36:24 10° SW 17:40:42 56° SE 17:45:04 10° ENE daylight
20 Aug - 19:18:37 10° W 19:22:28 29° NNW 19:26:23 10° NE daylight
20 Aug - 21:02:44 10° NW 21:05:13 14° N 21:07:42 10° NNE visible
20 Aug - 22:45:00 10° NNW 22:48:11 19° NNE 22:51:24 10° ENE visible
21 Aug - 00:26:00 10° NW 00:30:29 58° NE 00:35:03 10° ESE visible
21 Aug - 02:08:13 10° W 02:11:48 23° SW 02:15:25 10° S night (unlit)
21 Aug - 16:13:41 10° S 16:16:30 17° SE 16:19:20 10° E daylight
21 Aug - 17:53:15 10° WSW 17:57:39 71° NW 18:02:05 10° NE daylight
21 Aug - 19:36:33 10° WNW 19:39:49 20° NNW 19:43:08 10° NNE daylight
21 Aug - 21:20:22 10° NNW 21:22:46 14° N 21:25:12 10° NE visible
21 Aug - 23:01:46 10° NW 23:05:34 26° NNE 23:09:25 10° E visible
22 Aug - 00:42:56 10° WNW 00:47:28 72° SW 00:52:04 10° SE night (unlit)
22 Aug - 16:29:10 10° SSW 16:33:12 36° SE 16:37:16 10° ENE daylight
22 Aug - 18:10:38 10° W 18:14:45 38° NNW 18:18:54 10° NE daylight
22 Aug - 19:54:36 10° NW 19:57:18 15° N 19:59:59 10° NNE visible
22 Aug - 21:37:29 10° NNW 21:40:18 16° NNE 21:43:09 10° NE visible
22 Aug - 23:18:30 10° NW 23:22:48 41° NNE 23:27:08 10° ESE visible
23 Aug - 01:00:12 10° WNW 01:04:19 34° SW 01:08:28 10° SSE night (unlit)
23 Aug - 15:08:24 10° SE 15:09:05 10° SE 15:09:48 10° ESE daylight
23 Aug - 16:45:39 10° SW 16:50:03 79° SE 16:54:29 10° NE daylight
23 Aug - 18:28:24 10° WNW 18:32:00 24° NNW 18:35:38 10° NNE daylight
23 Aug - 20:12:29 10° NNW 20:14:51 14° N 20:17:12 10° NNE visible
23 Aug - 21:54:18 10° NNW 21:57:45 21° NNE 22:01:13 10° ENE visible
23 Aug - 23:35:20 10° NW 23:39:52 78° NE 23:44:28 10° ESE visible
24 Aug - 01:18:15 10° W 01:21:02 16° SW 01:23:49 10° SSW night (unlit)
24 Aug - 15:22:13 10° S 15:25:45 24° SE 15:29:16 10° E daylight
24 Aug - 17:02:45 10° WSW 17:07:04 52° NNW 17:11:24 10° NE daylight
24 Aug - 18:46:26 10° WNW 18:49:24 17° NNW 18:52:24 10° NNE daylight
24 Aug - 20:29:53 10° NNW 20:32:24 15° N 20:34:55 10° NE visible
24 Aug - 22:11:02 10° NW 22:15:04 31° NNE 22:19:08 10° E visible
24 Aug - 23:52:23 10° WNW 23:56:47 51° SW 00:01:14 10° SSE visible
25 Aug - 15:38:14 10° SSW 15:42:31 51° SE 15:46:48 10° ENE daylight
25 Aug - 17:20:19 10° W 17:24:14 30° NNW 17:28:10 10° NE daylight
25 Aug - 19:04:28 10° NW 19:06:55 14° N 19:09:22 10° NNE daylight
25 Aug - 20:46:50 10° NNW 20:49:53 18° NNE 20:52:58 10° ENE visible
25 Aug - 22:27:48 10° NW 22:32:13 54° NNE 22:36:41 10° ESE visible
26 Aug - 00:09:55 10° WNW 00:13:34 24° SW 00:17:15 10° S night (unlit)
26 Aug - 14:15:42 10° SSE 14:18:18 15° SE 14:20:53 10° E daylight
26 Aug - 15:55:02 10° WSW 15:59:25 76° NW 16:03:51 10° NE daylight
26 Aug - 17:38:14 10° WNW 17:41:33 20° NNW 17:44:53 10° NNE daylight
26 Aug - 19:22:09 10° NNW 19:24:28 14° N 19:26:48 10° NE daylight
26 Aug - 21:03:36 10° NNW 21:07:17 24° NNE 21:11:00 10° ENE visible
26 Aug - 22:44:43 10° NW 22:49:13 78° SW 22:53:47 10° SE visible
27 Aug - 00:29:08 10° WSW 00:30:14 11° SW 00:31:18 10° SW night (unlit)
27 Aug - 14:31:02 10° SSW 14:35:00 33° SE 14:38:59 10° ENE daylight
27 Aug - 16:12:20 10° W 16:16:30 40° NNW 16:20:41 10° NE daylight
27 Aug - 17:56:19 10° NW 17:59:00 16° N 18:01:42 10° NNE daylight
27 Aug - 19:39:18 10° NNW 19:42:01 16° N 19:44:43 10° NE visible
27 Aug - 21:20:19 10° NW 21:24:31 39° NNE 21:28:47 10° E visible
27 Aug - 23:01:56 10° WNW 23:06:04 36° SW 23:10:15 10° SSE visible
28 Aug - 14:47:26 10° SW 14:51:51 73° SE 14:56:15 10° NE daylight
28 Aug - 16:30:06 10° W 16:33:44 25° NNW 16:37:24 10° NNE daylight
28 Aug - 18:14:15 10° NW 18:16:32 14° N 18:18:51 10° NNE daylight
28 Aug - 19:56:08 10° NNW 19:59:27 20° NNE 20:02:48 10° ENE visible
28 Aug - 21:37:08 10° NW 21:41:37 72° NE 21:46:08 10° ESE visible
28 Aug - 23:19:52 10° W 23:22:47 17° SW 23:25:44 10° S visible
29 Aug - 13:24:08 10° S 13:27:32 22° SE 13:30:56 10° E daylight
29 Aug - 15:04:30 10° WSW 15:08:50 56° NNW 15:13:10 10° NE daylight
29 Aug - 16:48:06 10° WNW 16:51:07 18° NNW 16:54:09 10° NNE daylight
29 Aug - 18:31:41 10° NNW 18:34:06 14° N 18:36:30 10° NE daylight
29 Aug - 20:12:52 10° NW 20:16:47 29° NNE 20:20:44 10° E visible
29 Aug - 21:54:09 10° WNW 21:58:33 55° SW 22:02:58 10° SE visible
